M I D A S
Marine Information and Data Acquisition System
Tripno 1716 of the Zeeleeuw from 2009-06-25 07:14:08 to 2009-06-25 13:53:43
Back to CruiseResearch ActivitiesStationsMapUnderway DataData graphs

EquipmentUnitsComments
TimeDGPSUTC
LatitudeDGPSDM.mWGS84
LongitudeDGPSDM.mWGS84
SpeedMeteo Stationm/sRelative wind speed
DirectionMeteo StationdegRelative wind direction
TemperatureMeteo Stationdeg CelciusAir temperature
PressureMeteo StationPaAtmospheric pressure
HumidityMeteo Station%Relative humidity
Missing or incorrect values are displayed as -999
Metereological data collected by the RV Zeeleeuw from 2009-06-25 07:08:44 to 2009-06-25 14:03:05
                                                                                    Next 1000 lines
Time Latitude Longitude Speed Direction Temperature Pressure Humidity
2009-06-25 07:08:53 51°13.662 2°55.956 1.3 320 20.2 101400 65
2009-06-25 07:08:59 51°13.663 2°55.953 2.1 276 20.3 101400 65
2009-06-25 07:09:04 51°13.664 2°55.951 1.7 38 20.3 101400 65
2009-06-25 07:09:09 51°13.665 2°55.947 2.4 277 20.3 101400 65
2009-06-25 07:09:15 51°13.666 2°55.943 2.1 317 20.3 101400 65
2009-06-25 07:09:20 51°13.668 2°55.939 2.3 279 20.3 101400 65
2009-06-25 07:09:26 51°13.669 2°55.933 2.4 320 20.3 101400 65
2009-06-25 07:09:32 51°13.671 2°55.928 2.7 282 20.3 101400 65
2009-06-25 07:09:37 51°13.673 2°55.923 2.5 319 20.3 101400 65
2009-06-25 07:09:43 51°13.674 2°55.917 2.4 279 20.3 101400 65
2009-06-25 07:09:48 51°13.676 2°55.912 2.4 37 20.3 101400 65
2009-06-25 07:09:53 51°13.678 2°55.907 1.2 282 20.3 101400 65
2009-06-25 07:09:57 51°13.679 2°55.902 1.6 233 20.3 101400 65
2009-06-25 07:10:03 51°13.681 2°55.895 1.4 286 20.3 101400 65
2009-06-25 07:10:08 51°13.683 2°55.889 1.9 241 20.3 101400 65
2009-06-25 07:10:13 51°13.684 2°55.882 1.5 282 20.3 101400 64
2009-06-25 07:10:18 51°13.686 2°55.876 1.5 234 20.3 101400 64
2009-06-25 07:10:23 51°13.687 2°55.869 1.2 281 20.3 101400 64
2009-06-25 07:10:28 51°13.688 2°55.861 1.1 330 20.3 101400 64
2009-06-25 07:10:33 51°13.69 2°55.854 1 284 20.3 101400 64
2009-06-25 07:10:38 51°13.691 2°55.846 0.8 340 20.3 101400 64
2009-06-25 07:10:43 51°13.692 2°55.838 0.9 284 20.3 101400 65
2009-06-25 07:10:48 51°13.693 2°55.831 0.4 340 20.3 101400 65
2009-06-25 07:10:52 51°13.694 2°55.825 0.3 286 20.3 101400 65
2009-06-25 07:10:58 51°13.695 2°55.816 0.2 339 20.3 101400 65
2009-06-25 07:11:03 51°13.696 2°55.808 0.1 281 20.3 101400 65
2009-06-25 07:11:08 51°13.697 2°55.801 0.1 339 20.3 101400 65
2009-06-25 07:11:12 51°13.698 2°55.795 0.1 276 20.3 101400 65
2009-06-25 07:11:17 51°13.698 2°55.788 0.1 339 20.3 101400 65
2009-06-25 07:11:23 51°13.699 2°55.78 0.1 279 20.3 101400 65
2009-06-25 07:11:28 51°13.7 2°55.773 0.1 339 20.3 101400 65
2009-06-25 07:11:33 51°13.7 2°55.767 0.1 339 20.4 101400 65
2009-06-25 07:11:37 51°13.701 2°55.762 1 34 20.4 101400 65
2009-06-25 07:11:42 51°13.701 2°55.757 1.2 280 20.4 101410 65
2009-06-25 07:11:48 51°13.701 2°55.754 1.9 31 20.4 101410 65
2009-06-25 07:11:52 51°13.702 2°55.752 2.3 281 20.4 101410 65
2009-06-25 07:11:57 51°13.702 2°55.751 3.7 332 20.4 101410 65
2009-06-25 07:12:02 51°13.703 2°55.751 3 280 20.4 101410 65
2009-06-25 07:12:07 51°13.703 2°55.751 2.9 337 20.4 101410 65
2009-06-25 07:12:12 51°13.704 2°55.752 3 283 20.4 101410 64
2009-06-25 07:12:17 51°13.705 2°55.753 3.7 334 20.4 101410 64
2009-06-25 07:12:21 51°13.706 2°55.753 3.6 279 20.4 101410 65
2009-06-25 07:12:26 51°13.707 2°55.754 3.9 350 20.4 101410 65
2009-06-25 07:12:31 51°13.708 2°55.755 3.3 7 20.4 101400 63
2009-06-25 07:12:36 51°13.708 2°55.755 2.7 11 20.4 101400 63
2009-06-25 07:12:41 51°13.708 2°55.754 2.8 7 20.4 101410 64
2009-06-25 07:12:45 51°13.708 2°55.753 2.7 13 20.4 101410 64
2009-06-25 07:12:50 51°13.707 2°55.752 2.7 15 20.4 101400 64
2009-06-25 07:12:55 51°13.706 2°55.75 2.3 16 20.4 101400 64
2009-06-25 07:13:00 51°13.705 2°55.749 2.9 17 20.3 101400 64
2009-06-25 07:13:05 51°13.704 2°55.747 3.2 20 20.3 101400 64
2009-06-25 07:13:09 51°13.703 2°55.746 2.9 16 20.3 101400 64
2009-06-25 07:13:16 51°13.702 2°55.744 2.3 16 20.3 101400 64
2009-06-25 07:13:21 51°13.703 2°55.744 2.1 13 20.2 101410 64
2009-06-25 07:13:27 51°13.705 2°55.743 2.6 6 20.2 101410 64
2009-06-25 07:13:33 51°13.708 2°55.742 2.3 7 20.2 101410 65
2009-06-25 07:13:37 51°13.711 2°55.741 2.7 16 20.2 101410 65
2009-06-25 07:13:42 51°13.714 2°55.739 1.7 18 20.2 101410 64
2009-06-25 07:13:47 51°13.718 2°55.737 1.6 20 20.2 101410 64
2009-06-25 07:13:52 51°13.721 2°55.734 1.8 21 20.2 101410 65
2009-06-25 07:13:57 51°13.725 2°55.731 2.1 21 20.2 101410 65
2009-06-25 07:14:01 51°13.728 2°55.728 2 21 20.1 101400 65
2009-06-25 07:14:07 51°13.734 2°55.723 1.4 19 20.1 101400 65
2009-06-25 07:14:12 51°13.738 2°55.719 1.3 24 20.1 101400 65
2009-06-25 07:14:16 51°13.743 2°55.715 2.1 27 20.1 101400 65
2009-06-25 07:14:21 51°13.748 2°55.71 2.2 12 20.1 101410 65
2009-06-25 07:14:26 51°13.754 2°55.705 1.7 11 20.1 101410 65
2009-06-25 07:14:31 51°13.76 2°55.7 1.9 11 20 101410 65
2009-06-25 07:14:36 51°13.766 2°55.694 2.2 356 20 101410 65
2009-06-25 07:14:40 51°13.771 2°55.689 1.9 355 20 101410 65
2009-06-25 07:14:45 51°13.778 2°55.683 1.7 18 20 101410 65
2009-06-25 07:14:50 51°13.785 2°55.677 2.5 3 20 101410 65
2009-06-25 07:14:55 51°13.793 2°55.671 3.1 16 20 101410 65
2009-06-25 07:15:00 51°13.8 2°55.664 3.7 357 20 101400 66
2009-06-25 07:15:05 51°13.808 2°55.658 4.8 346 20 101400 66
2009-06-25 07:15:09 51°13.815 2°55.652 3.6 281 19.9 101400 65
2009-06-25 07:15:15 51°13.825 2°55.645 2.9 334 19.9 101400 65
2009-06-25 07:15:19 51°13.832 2°55.639 2.5 285 19.9 101410 65
2009-06-25 07:15:24 51°13.841 2°55.633 2.7 346 19.9 101410 65
2009-06-25 07:15:29 51°13.85 2°55.625 3.1 339 19.9 101410 65
2009-06-25 07:15:34 51°13.859 2°55.618 3.1 340 19.9 101410 65
2009-06-25 07:15:39 51°13.869 2°55.611 2.6 351 19.9 101410 66
2009-06-25 07:15:44 51°13.878 2°55.603 3.6 354 19.9 101410 66
2009-06-25 07:15:49 51°13.888 2°55.595 4.4 359 19.9 101410 65
2009-06-25 07:15:54 51°13.898 2°55.586 5.3 359 19.9 101410 65
2009-06-25 07:15:59 51°13.908 2°55.578 5.1 2 19.8 101400 66
2009-06-25 07:16:04 51°13.919 2°55.569 4.5 4 19.8 101400 66
2009-06-25 07:16:09 51°13.929 2°55.56 4.4 5 19.8 101400 66
2009-06-25 07:16:14 51°13.939 2°55.551 4.5 6 19.8 101400 66
2009-06-25 07:16:19 51°13.95 2°55.542 5.1 2 19.8 101400 66
2009-06-25 07:16:24 51°13.961 2°55.533 4 2 19.8 101400 66
2009-06-25 07:16:29 51°13.971 2°55.524 3.2 7 19.7 101400 66
2009-06-25 07:16:33 51°13.98 2°55.517 3.7 359 19.7 101400 66
2009-06-25 07:16:39 51°13.993 2°55.507 3.7 4 19.7 101400 65
2009-06-25 07:16:44 51°14.004 2°55.499 2.6 6 19.7 101400 65
2009-06-25 07:16:49 51°14.016 2°55.49 2.2 7 19.6 101400 66
2009-06-25 07:16:53 51°14.025 2°55.483 3.2 6 19.6 101400 66
2009-06-25 07:16:59 51°14.038 2°55.473 2.6 2 19.6 101400 66
2009-06-25 07:17:04 51°14.049 2°55.465 3 355 19.6 101400 66
2009-06-25 07:17:09 51°14.061 2°55.456 3.9 350 19.5 101400 67
2009-06-25 07:17:13 51°14.07 2°55.449 5 349 19.5 101400 67
2009-06-25 07:17:19 51°14.084 2°55.438 5.7 278 19.5 101400 67
2009-06-25 07:17:24 51°14.096 2°55.429 4.6 355 19.5 101400 67
2009-06-25 07:17:29 51°14.108 2°55.42 5 351 19.5 101400 67
2009-06-25 07:17:34 51°14.119 2°55.41 4.8 347 19.5 101400 67
2009-06-25 07:17:39 51°14.131 2°55.401 5.4 279 19.5 101400 68
2009-06-25 07:17:44 51°14.143 2°55.39 6.1 358 19.5 101400 68
2009-06-25 07:17:49 51°14.155 2°55.38 5.3 356 19.5 101400 67
2009-06-25 07:17:54 51°14.167 2°55.369 4.6 1 19.5 101400 67
2009-06-25 07:17:59 51°14.178 2°55.357 4.7 354 19.5 101400 67
2009-06-25 07:18:04 51°14.189 2°55.344 4.6 357 19.5 101400 67
2009-06-25 07:18:09 51°14.2 2°55.332 4.2 360 19.4 101400 67
2009-06-25 07:18:14 51°14.211 2°55.318 4.2 354 19.4 101400 67
2009-06-25 07:18:19 51°14.221 2°55.303 4.5 351 19.4 101390 67
2009-06-25 07:18:24 51°14.232 2°55.289 3.2 6 19.4 101390 67
2009-06-25 07:18:29 51°14.242 2°55.273 4.2 358 19.4 101400 67
2009-06-25 07:18:34 51°14.251 2°55.257 3.1 357 19.4 101400 67
2009-06-25 07:18:39 51°14.261 2°55.242 4 -999 19.4 101400 67
2009-06-25 07:18:44 51°14.271 2°55.225 2.9 354 19.4 101400 67
2009-06-25 07:18:49 51°14.28 2°55.209 3.1 2 19.4 101400 67
2009-06-25 07:18:53 51°14.288 2°55.196 3.7 345 19.4 101400 67
2009-06-25 07:18:59 51°14.299 2°55.174 3.3 359 19.3 101400 67
2009-06-25 07:19:04 51°14.308 2°55.156 3.1 9 19.3 101400 67
2009-06-25 07:19:09 51°14.317 2°55.138 3.4 1 19.3 101400 67
2009-06-25 07:19:13 51°14.324 2°55.124 3 4 19.3 101400 67
2009-06-25 07:19:19 51°14.336 2°55.102 3.2 360 19.3 101400 68
2009-06-25 07:19:24 51°14.345 2°55.083 3.6 359 19.3 101400 68
2009-06-25 07:19:29 51°14.355 2°55.065 4.4 1 19.4 101400 67
2009-06-25 07:19:33 51°14.363 2°55.05 4.3 352 19.4 101400 67
2009-06-25 07:19:39 51°14.376 2°55.029 4.8 355 19.4 101400 68
2009-06-25 07:19:44 51°14.387 2°55.012 5.4 357 19.4 101400 68
2009-06-25 07:19:49 51°14.399 2°54.995 6.9 358 19.3 101400 67
2009-06-25 07:19:54 51°14.41 2°54.978 6.1 355 19.3 101400 67
2009-06-25 07:19:59 51°14.422 2°54.96 4.9 357 19.3 101400 68
2009-06-25 07:20:04 51°14.434 2°54.943 5.4 356 19.3 101400 68
2009-06-25 07:20:09 51°14.446 2°54.927 6.2 357 19.3 101400 68
2009-06-25 07:20:14 51°14.459 2°54.911 5.9 358 19.3 101400 68
2009-06-25 07:20:19 51°14.472 2°54.896 5.5 357 19.3 101390 68
2009-06-25 07:20:24 51°14.485 2°54.879 4.7 357 19.3 101390 68
2009-06-25 07:20:29 51°14.497 2°54.862 5.5 357 19.2 101390 68
2009-06-25 07:20:34 51°14.509 2°54.844 5.2 357 19.2 101390 68
2009-06-25 07:20:39 51°14.521 2°54.827 5.7 356 19.2 101400 69
2009-06-25 07:20:44 51°14.534 2°54.809 4.7 354 19.2 101400 69
2009-06-25 07:20:49 51°14.546 2°54.791 4.6 359 19.1 101390 69
2009-06-25 07:20:53 51°14.555 2°54.777 4.2 357 19.1 101390 69
2009-06-25 07:20:59 51°14.569 2°54.755 5 357 19.1 101400 67
2009-06-25 07:21:04 51°14.58 2°54.736 3.9 356 19.1 101400 67
2009-06-25 07:21:09 51°14.591 2°54.717 5.1 355 19.1 101390 68
2009-06-25 07:21:13 51°14.6 2°54.702 4.9 358 19.1 101390 68
2009-06-25 07:21:19 51°14.614 2°54.681 4.9 357 19 101400 68
2009-06-25 07:21:24 51°14.625 2°54.661 4.4 357 19 101400 68
2009-06-25 07:21:29 51°14.636 2°54.643 4.6 357 19 101390 68
2009-06-25 07:21:34 51°14.647 2°54.623 3.7 357 19 101390 68
2009-06-25 07:21:39 51°14.658 2°54.604 4.1 359 19 101390 67
2009-06-25 07:21:44 51°14.669 2°54.584 4.1 -999 19 101390 67
2009-06-25 07:21:49 51°14.68 2°54.564 3.4 3 19 101400 68
2009-06-25 07:21:54 51°14.69 2°54.543 4.7 359 19 101400 68
2009-06-25 07:21:59 51°14.701 2°54.523 4.9 356 19 101400 69
2009-06-25 07:22:04 51°14.712 2°54.503 4.9 354 19 101400 69
2009-06-25 07:22:09 51°14.722 2°54.482 4.6 349 19 101390 69
2009-06-25 07:22:14 51°14.733 2°54.462 4.9 351 19 101390 69
2009-06-25 07:22:19 51°14.743 2°54.441 4.9 350 19 101390 69
2009-06-25 07:22:24 51°14.753 2°54.421 4.3 353 19 101390 69
2009-06-25 07:22:29 51°14.764 2°54.401 4.6 353 19 101390 69
2009-06-25 07:22:33 51°14.772 2°54.384 4.5 353 19 101390 69
2009-06-25 07:22:39 51°14.785 2°54.36 4.7 353 19 101400 70
2009-06-25 07:22:44 51°14.795 2°54.339 4.5 353 19 101400 70
2009-06-25 07:22:49 51°14.805 2°54.319 5 355 19 101390 69
2009-06-25 07:22:54 51°14.816 2°54.298 4.6 353 19 101390 69
2009-06-25 07:22:59 51°14.826 2°54.277 3.8 354 19 101390 70
2009-06-25 07:23:04 51°14.836 2°54.257 4.4 354 19 101390 70
2009-06-25 07:23:09 51°14.846 2°54.236 4.1 357 18.9 101400 70
2009-06-25 07:23:14 51°14.856 2°54.216 5.2 355 18.9 101400 70
2009-06-25 07:23:19 51°14.866 2°54.195 4.4 356 18.9 101390 69
2009-06-25 07:23:24 51°14.876 2°54.175 4.2 355 18.9 101390 69
2009-06-25 07:23:29 51°14.886 2°54.155 4.7 354 18.9 101390 70
2009-06-25 07:23:33 51°14.894 2°54.138 3.9 356 18.9 101390 70
2009-06-25 07:23:39 51°14.907 2°54.114 4.1 354 18.9 101400 70
2009-06-25 07:23:44 51°14.916 2°54.094 4.1 352 18.9 101400 70
2009-06-25 07:23:49 51°14.926 2°54.073 3.8 355 18.9 101390 71
2009-06-25 07:23:54 51°14.936 2°54.053 4.1 354 18.9 101390 71
2009-06-25 07:23:59 51°14.945 2°54.032 4.6 353 18.9 101390 69
2009-06-25 07:24:04 51°14.955 2°54.012 5.6 350 18.9 101390 69
2009-06-25 07:24:09 51°14.964 2°53.991 5.8 351 18.9 101400 70
2009-06-25 07:24:14 51°14.974 2°53.969 5 349 18.9 101400 70
2009-06-25 07:24:19 51°14.983 2°53.949 5.2 278 18.9 101400 71
2009-06-25 07:24:24 51°14.993 2°53.928 5.3 356 18.9 101400 71
2009-06-25 07:24:29 51°15.003 2°53.907 6 353 18.9 101390 72
2009-06-25 07:24:33 51°15.01 2°53.89 5.1 352 18.9 101390 72
2009-06-25 07:24:39 51°15.022 2°53.865 5.2 353 18.9 101390 73
2009-06-25 07:24:44 51°15.031 2°53.844 4.9 354 18.9 101390 73
2009-06-25 07:24:49 51°15.041 2°53.824 5.1 352 18.9 101390 72
2009-06-25 07:24:54 51°15.051 2°53.803 5.9 355 18.9 101390 72
2009-06-25 07:24:59 51°15.06 2°53.783 6 354 18.8 101390 72
2009-06-25 07:25:04 51°15.07 2°53.762 6.3 352 18.8 101390 72
2009-06-25 07:25:09 51°15.08 2°53.741 5.1 354 18.8 101390 72
2009-06-25 07:25:14 51°15.09 2°53.721 5.6 353 18.8 101390 72
2009-06-25 07:25:19 51°15.1 2°53.701 5.1 355 18.8 101390 72
2009-06-25 07:25:24 51°15.11 2°53.68 4.7 355 18.8 101390 72
2009-06-25 07:25:29 51°15.119 2°53.66 4.7 354 18.7 101390 73
2009-06-25 07:25:34 51°15.129 2°53.639 5.6 353 18.7 101390 73
2009-06-25 07:25:39 51°15.138 2°53.618 5.8 353 18.7 101390 71
2009-06-25 07:25:44 51°15.148 2°53.597 5.8 353 18.7 101390 71
2009-06-25 07:25:49 51°15.157 2°53.576 4.5 353 18.7 101390 72
2009-06-25 07:25:53 51°15.165 2°53.559 4.3 354 18.7 101390 72
2009-06-25 07:25:59 51°15.177 2°53.534 5.2 354 18.6 101390 72
2009-06-25 07:26:04 51°15.187 2°53.514 5.3 353 18.6 101390 72
2009-06-25 07:26:09 51°15.197 2°53.493 5.7 355 18.6 101390 72
2009-06-25 07:26:14 51°15.207 2°53.473 5.7 352 18.6 101390 72
2009-06-25 07:26:19 51°15.217 2°53.452 4.8 354 18.6 101390 73
2009-06-25 07:26:24 51°15.227 2°53.431 5 352 18.6 101390 73
2009-06-25 07:26:29 51°15.236 2°53.41 5.4 355 18.6 101390 73
2009-06-25 07:26:34 51°15.246 2°53.389 5.6 353 18.6 101390 73
2009-06-25 07:26:39 51°15.256 2°53.367 5.1 354 18.6 101390 73
2009-06-25 07:26:44 51°15.265 2°53.346 4.5 355 18.6 101390 73
2009-06-25 07:26:49 51°15.275 2°53.325 5.3 354 18.6 101390 73
2009-06-25 07:26:54 51°15.285 2°53.304 4.4 353 18.6 101390 73
2009-06-25 07:26:59 51°15.295 2°53.282 4.3 353 18.6 101390 72
2009-06-25 07:27:04 51°15.305 2°53.261 4.5 353 18.6 101390 72
2009-06-25 07:27:09 51°15.315 2°53.24 4.8 358 18.6 101390 73
2009-06-25 07:27:13 51°15.323 2°53.223 4.5 358 18.6 101390 73
2009-06-25 07:27:19 51°15.334 2°53.198 5.6 357 18.5 101390 74
2009-06-25 07:27:24 51°15.344 2°53.176 4.7 359 18.5 101390 74
2009-06-25 07:27:29 51°15.354 2°53.155 4.5 357 18.5 101400 74
2009-06-25 07:27:34 51°15.364 2°53.134 5.3 358 18.5 101400 74
2009-06-25 07:27:39 51°15.374 2°53.113 4.8 356 18.5 101390 74
2009-06-25 07:27:44 51°15.384 2°53.092 4.4 357 18.5 101390 74
2009-06-25 07:27:49 51°15.394 2°53.07 4.2 356 18.5 101390 73
2009-06-25 07:27:54 51°15.404 2°53.049 4.7 357 18.5 101390 73
2009-06-25 07:27:59 51°15.414 2°53.028 4.5 359 18.5 101390 73
2009-06-25 07:28:04 51°15.423 2°53.007 4.7 359 18.5 101390 73
2009-06-25 07:28:09 51°15.433 2°52.985 4.1 357 18.5 101400 73
2009-06-25 07:28:14 51°15.444 2°52.965 5.3 359 18.5 101400 73
2009-06-25 07:28:19 51°15.455 2°52.945 5.7 357 18.5 101390 73
2009-06-25 07:28:24 51°15.465 2°52.924 5 359 18.5 101390 73
2009-06-25 07:28:29 51°15.476 2°52.906 4.6 356 18.5 101390 73
2009-06-25 07:28:33 51°15.485 2°52.89 6.1 357 18.5 101390 73
2009-06-25 07:28:39 51°15.499 2°52.869 6.3 356 18.5 101390 74
2009-06-25 07:28:44 51°15.511 2°52.852 6.4 357 18.5 101390 74
2009-06-25 07:28:49 51°15.523 2°52.836 6.6 354 18.4 101380 72
2009-06-25 07:28:53 51°15.534 2°52.825 5.5 356 18.4 101380 72
2009-06-25 07:28:59 51°15.549 2°52.809 6.8 355 18.4 101390 73
2009-06-25 07:29:04 51°15.563 2°52.797 6.3 354 18.4 101390 73
2009-06-25 07:29:09 51°15.577 2°52.787 7.4 353 18.4 101390 72
2009-06-25 07:29:13 51°15.588 2°52.78 6.3 352 18.4 101390 72
2009-06-25 07:29:19 51°15.605 2°52.771 7.5 278 18.4 101390 73
2009-06-25 07:29:24 51°15.619 2°52.766 7.1 351 18.4 101390 73
2009-06-25 07:29:29 51°15.634 2°52.762 8.3 351 18.4 101390 73
2009-06-25 07:29:34 51°15.648 2°52.76 6.9 349 18.4 101390 73
2009-06-25 07:29:39 51°15.663 2°52.757 9.3 348 18.4 101390 72
2009-06-25 07:29:44 51°15.677 2°52.756 8.3 344 18.4 101390 72
2009-06-25 07:29:49 51°15.691 2°52.755 8.4 348 18.4 101380 72
2009-06-25 07:29:54 51°15.705 2°52.755 7.9 347 18.4 101380 72
2009-06-25 07:29:59 51°15.719 2°52.755 7.4 350 18.4 101380 74
2009-06-25 07:30:04 51°15.733 2°52.754 7.9 347 18.4 101380 74
2009-06-25 07:30:09 51°15.748 2°52.751 8.8 279 18.4 101380 73
2009-06-25 07:30:14 51°15.762 2°52.75 8.4 346 18.4 101380 73
2009-06-25 07:30:19 51°15.777 2°52.747 8.6 347 18.4 101390 74
2009-06-25 07:30:24 51°15.792 2°52.744 7.6 345 18.4 101390 74
2009-06-25 07:30:29 51°15.807 2°52.741 7.3 278 18.4 101380 74
2009-06-25 07:30:34 51°15.822 2°52.738 7.1 345 18.4 101380 74
2009-06-25 07:30:39 51°15.837 2°52.735 8.5 279 18.4 101390 75
2009-06-25 07:30:44 51°15.851 2°52.731 8.5 346 18.4 101390 75
2009-06-25 07:30:49 51°15.866 2°52.728 8.7 280 18.4 101390 74
2009-06-25 07:30:53 51°15.878 2°52.724 8.7 347 18.4 101390 74
2009-06-25 07:30:59 51°15.897 2°52.719 8.6 278 18.4 101380 75
2009-06-25 07:31:04 51°15.912 2°52.716 7.1 346 18.4 101380 75
2009-06-25 07:31:09 51°15.926 2°52.711 7.4 279 18.5 101380 75
2009-06-25 07:31:13 51°15.939 2°52.707 9.1 346 18.5 101380 75
2009-06-25 07:31:19 51°15.957 2°52.703 7.3 285 18.4 101390 75
2009-06-25 07:31:24 51°15.972 2°52.697 7.5 344 18.4 101390 75
2009-06-25 07:31:29 51°15.986 2°52.694 8.5 343 18.4 101380 76
2009-06-25 07:31:33 51°15.998 2°52.689 7.7 343 18.4 101380 76
2009-06-25 07:31:39 51°16.016 2°52.684 8.9 283 18.4 101390 75
2009-06-25 07:31:44 51°16.031 2°52.678 7.9 344 18.4 101390 75
2009-06-25 07:31:49 51°16.046 2°52.673 7.5 281 18.4 101390 75
2009-06-25 07:31:54 51°16.061 2°52.668 7.3 344 18.4 101390 75
2009-06-25 07:31:59 51°16.075 2°52.663 9.1 282 18.4 101390 76
2009-06-25 07:32:04 51°16.09 2°52.658 9.2 344 18.4 101390 76
2009-06-25 07:32:09 51°16.105 2°52.653 8.5 284 18.4 101390 77
2009-06-25 07:32:14 51°16.12 2°52.648 7.8 345 18.4 101390 77
2009-06-25 07:32:19 51°16.135 2°52.643 7.6 278 18.4 101390 76
2009-06-25 07:32:24 51°16.15 2°52.637 7.9 346 18.4 101390 76
2009-06-25 07:32:29 51°16.165 2°52.631 8.4 281 18.4 101380 75
2009-06-25 07:32:34 51°16.18 2°52.625 8.9 346 18.4 101380 75
2009-06-25 07:32:39 51°16.195 2°52.619 7.5 283 18.4 101390 76
2009-06-25 07:32:44 51°16.21 2°52.613 7.4 347 18.4 101390 76
2009-06-25 07:32:49 51°16.225 2°52.607 7.7 277 18.4 101380 76
2009-06-25 07:32:54 51°16.24 2°52.601 8 348 18.4 101380 76
2009-06-25 07:32:59 51°16.255 2°52.595 7.2 281 18.3 101380 76
2009-06-25 07:33:04 51°16.27 2°52.589 8.2 348 18.3 101380 76
2009-06-25 07:33:09 51°16.285 2°52.583 8.6 281 18.3 101380 76
2009-06-25 07:33:13 51°16.297 2°52.578 7.4 348 18.3 101380 76
2009-06-25 07:33:19 51°16.315 2°52.572 8.5 280 18.3 101380 76
2009-06-25 07:33:24 51°16.33 2°52.566 8.4 348 18.3 101380 76
2009-06-25 07:33:29 51°16.345 2°52.561 6.9 348 18.3 101390 75
2009-06-25 07:33:33 51°16.356 2°52.556 8.2 349 18.3 101390 75
2009-06-25 07:33:39 51°16.374 2°52.549 8 351 18.3 101380 76
2009-06-25 07:33:44 51°16.389 2°52.542 7.8 351 18.3 101380 76
2009-06-25 07:33:49 51°16.404 2°52.536 8.2 351 18.3 101380 76
2009-06-25 07:33:53 51°16.416 2°52.532 8.3 351 18.3 101380 76
2009-06-25 07:33:59 51°16.434 2°52.525 8.3 351 18.3 101380 75
2009-06-25 07:34:04 51°16.449 2°52.519 7.1 350 18.3 101380 75
2009-06-25 07:34:09 51°16.464 2°52.514 8.2 351 18.3 101390 75
2009-06-25 07:34:14 51°16.479 2°52.509 8.1 352 18.3 101390 75
2009-06-25 07:34:19 51°16.494 2°52.504 7.6 351 18.3 101380 75
2009-06-25 07:34:24 51°16.509 2°52.498 7.4 350 18.3 101380 75
2009-06-25 07:34:29 51°16.524 2°52.493 8.1 351 18.3 101390 75
2009-06-25 07:34:34 51°16.539 2°52.488 7.9 351 18.3 101390 75
2009-06-25 07:34:39 51°16.554 2°52.482 8.2 280 18.3 101380 75
2009-06-25 07:34:44 51°16.569 2°52.477 7.2 350 18.3 101380 75
2009-06-25 07:34:49 51°16.584 2°52.471 8 280 18.3 101390 76
2009-06-25 07:34:54 51°16.599 2°52.466 7.2 350 18.3 101390 76
2009-06-25 07:34:59 51°16.614 2°52.461 8.5 279 18.3 101390 75
2009-06-25 07:35:04 51°16.629 2°52.455 7.2 350 18.3 101390 75
2009-06-25 07:35:09 51°16.644 2°52.45 8.5 278 18.3 101380 75
2009-06-25 07:35:13 51°16.656 2°52.447 7.2 349 18.3 101380 75
2009-06-25 07:35:19 51°16.674 2°52.442 8.1 350 18.3 101390 75
2009-06-25 07:35:24 51°16.689 2°52.439 8.2 349 18.3 101390 75
2009-06-25 07:35:29 51°16.704 2°52.436 8.7 282 18.3 101380 75
2009-06-25 07:35:33 51°16.716 2°52.434 7.6 347 18.3 101380 75
2009-06-25 07:35:39 51°16.734 2°52.431 8 281 18.3 101380 76
2009-06-25 07:35:44 51°16.749 2°52.428 9.2 347 18.3 101380 76
2009-06-25 07:35:49 51°16.764 2°52.425 7.7 278 18.3 101390 76
2009-06-25 07:35:53 51°16.775 2°52.423 8.1 347 18.3 101390 76
2009-06-25 07:35:59 51°16.793 2°52.419 8.8 348 18.3 101390 76
2009-06-25 07:36:04 51°16.807 2°52.416 7.3 347 18.3 101390 76
2009-06-25 07:36:09 51°16.822 2°52.413 9.4 348 18.3 101380 76
2009-06-25 07:36:14 51°16.836 2°52.41 9 346 18.3 101380 76
2009-06-25 07:36:19 51°16.851 2°52.408 9 282 18.3 101390 76
2009-06-25 07:36:24 51°16.866 2°52.406 9.6 349 18.3 101390 76
2009-06-25 07:36:29 51°16.88 2°52.406 7.9 347 18.3 101380 76
2009-06-25 07:36:34 51°16.895 2°52.405 9 347 18.3 101380 76
2009-06-25 07:36:39 51°16.909 2°52.406 7.9 277 18.3 101390 76
2009-06-25 07:36:44 51°16.924 2°52.406 8.1 346 18.3 101390 76
2009-06-25 07:36:49 51°16.938 2°52.407 7.7 286 18.3 101390 75
2009-06-25 07:36:54 51°16.952 2°52.407 9.3 345 18.3 101390 75
2009-06-25 07:36:59 51°16.967 2°52.409 8.2 279 18.3 101390 77
2009-06-25 07:37:04 51°16.981 2°52.41 8.5 343 18.3 101390 77
2009-06-25 07:37:09 51°16.995 2°52.412 9.3 280 18.3 101390 77
2009-06-25 07:37:14 51°17.01 2°52.413 8.4 345 18.3 101390 77
2009-06-25 07:37:19 51°17.024 2°52.415 9.1 282 18.3 101390 76
2009-06-25 07:37:25 51°17.041 2°52.417 8.4 345 18.3 101390 76
2009-06-25 07:37:29 51°17.053 2°52.418 9.2 279 18.3 101380 77
2009-06-25 07:37:33 51°17.064 2°52.42 9.3 345 18.3 101380 77
2009-06-25 07:37:39 51°17.081 2°52.422 7.8 282 18.3 101390 77
2009-06-25 07:37:44 51°17.096 2°52.423 8.2 345 18.3 101390 77
2009-06-25 07:37:49 51°17.11 2°52.425 8.2 277 18.3 101390 77
2009-06-25 07:37:53 51°17.122 2°52.426 9.1 344 18.3 101390 77
2009-06-25 07:37:59 51°17.139 2°52.426 8.6 278 18.3 101380 77
2009-06-25 07:38:04 51°17.153 2°52.426 9.7 347 18.3 101380 77
2009-06-25 07:38:09 51°17.168 2°52.426 9.3 279 18.3 101380 77
2009-06-25 07:38:13 51°17.179 2°52.426 8.6 344 18.3 101380 77
2009-06-25 07:38:19 51°17.197 2°52.425 8.8 284 18.3 101390 76
2009-06-25 07:38:24 51°17.211 2°52.426 8.1 346 18.3 101390 76
2009-06-25 07:38:29 51°17.226 2°52.427 9.4 346 18.3 101380 76
2009-06-25 07:38:34 51°17.24 2°52.428 8.4 347 18.3 101380 76
2009-06-25 07:38:39 51°17.254 2°52.429 8.5 279 18.3 101390 76
2009-06-25 07:38:44 51°17.269 2°52.43 8.2 345 18.3 101390 76
2009-06-25 07:38:49 51°17.283 2°52.431 8.4 279 18.3 101390 75
2009-06-25 07:38:54 51°17.298 2°52.432 9.1 345 18.3 101390 75
2009-06-25 07:38:59 51°17.312 2°52.433 9.3 279 18.3 101390 75
2009-06-25 07:39:04 51°17.326 2°52.434 9.4 343 18.3 101390 75
2009-06-25 07:39:09 51°17.34 2°52.435 8.4 278 18.3 101380 76
2009-06-25 07:39:14 51°17.355 2°52.436 9.3 344 18.3 101380 76
2009-06-25 07:39:19 51°17.369 2°52.437 8 285 18.3 101380 75
2009-06-25 07:39:24 51°17.383 2°52.438 8.7 345 18.3 101380 75
2009-06-25 07:39:29 51°17.398 2°52.439 8.4 279 18.3 101380 76
2009-06-25 07:39:34 51°17.412 2°52.44 9.4 345 18.3 101380 76
2009-06-25 07:39:39 51°17.427 2°52.441 9.1 346 18.3 101380 78
2009-06-25 07:39:44 51°17.441 2°52.442 8.5 344 18.3 101380 78
2009-06-25 07:39:49 51°17.455 2°52.443 8.3 284 18.3 101390 77
2009-06-25 07:39:53 51°17.467 2°52.444 8.6 344 18.3 101390 77
2009-06-25 07:39:59 51°17.484 2°52.445 8.7 284 18.3 101380 77
2009-06-25 07:40:04 51°17.498 2°52.446 9.5 344 18.3 101380 77
2009-06-25 07:40:09 51°17.513 2°52.447 8.2 277 18.3 101390 78
2009-06-25 07:40:13 51°17.524 2°52.448 9.5 345 18.3 101390 78
2009-06-25 07:40:19 51°17.541 2°52.449 8.9 345 18.3 101380 77
2009-06-25 07:40:24 51°17.556 2°52.449 8.9 345 18.3 101380 77
2009-06-25 07:40:29 51°17.57 2°52.45 8.5 345 18.3 101390 77
2009-06-25 07:40:34 51°17.584 2°52.451 8.8 346 18.3 101380 77
2009-06-25 07:40:39 51°17.599 2°52.452 9.8 285 18.3 101380 77
2009-06-25 07:40:44 51°17.613 2°52.453 9.1 346 18.3 101380 77
2009-06-25 07:40:49 51°17.627 2°52.455 8.5 279 18.3 101380 78
2009-06-25 07:40:54 51°17.641 2°52.456 8.6 345 18.3 101380 78
2009-06-25 07:40:59 51°17.656 2°52.457 9.8 283 18.3 101390 77
2009-06-25 07:41:04 51°17.67 2°52.458 9 345 18.3 101390 77
2009-06-25 07:41:09 51°17.684 2°52.46 8.8 278 18.3 101390 78
2009-06-25 07:41:14 51°17.699 2°52.461 8.7 346 18.3 101390 78
2009-06-25 07:41:19 51°17.713 2°52.462 9.7 283 18.3 101390 77
2009-06-25 07:41:24 51°17.727 2°52.463 8.9 346 18.3 101390 77
2009-06-25 07:41:29 51°17.742 2°52.464 9.9 280 18.2 101380 78
2009-06-25 07:41:34 51°17.756 2°52.464 9.7 347 18.2 101380 78
2009-06-25 07:41:39 51°17.77 2°52.465 9.1 279 18.2 101380 78
2009-06-25 07:41:44 51°17.784 2°52.467 8.9 348 18.2 101380 78
2009-06-25 07:41:49 51°17.799 2°52.468 8.9 279 18.2 101370 78
2009-06-25 07:41:54 51°17.813 2°52.469 10.4 347 18.2 101370 78
2009-06-25 07:41:59 51°17.827 2°52.471 10.4 278 18.2 101380 78
2009-06-25 07:42:04 51°17.841 2°52.473 10.1 346 18.2 101380 78
2009-06-25 07:42:09 51°17.855 2°52.476 9.5 285 18.2 101380 78
2009-06-25 07:42:13 51°17.866 2°52.478 8.9 344 18.2 101380 78
2009-06-25 07:42:19 51°17.883 2°52.482 10.2 284 18.2 101380 77
2009-06-25 07:42:24 51°17.897 2°52.485 10.3 341 18.2 101380 77
2009-06-25 07:42:29 51°17.911 2°52.488 10.1 344 18.2 101370 77
2009-06-25 07:42:33 51°17.923 2°52.491 9.5 344 18.2 101370 77
2009-06-25 07:42:39 51°17.94 2°52.494 10.6 279 18.2 101380 78
2009-06-25 07:42:44 51°17.954 2°52.498 10.2 343 18.2 101380 78
2009-06-25 07:42:49 51°17.968 2°52.501 10.5 277 18.2 101380 79
2009-06-25 07:42:54 51°17.982 2°52.505 9.2 342 18.2 101380 79
2009-06-25 07:42:59 51°17.996 2°52.508 9.4 282 18.2 101380 80
2009-06-25 07:43:04 51°18.009 2°52.515 10.4 341 18.2 101380 80
2009-06-25 07:43:09 51°18.023 2°52.52 10.6 283 18.2 101380 80
2009-06-25 07:43:14 51°18.036 2°52.528 10.9 339 18.2 101380 80
2009-06-25 07:43:19 51°18.049 2°52.535 11 279 18.2 101390 80
2009-06-25 07:43:24 51°18.062 2°52.543 9.2 339 18.2 101390 80
2009-06-25 07:43:29 51°18.075 2°52.55 9.8 340 18.2 101380 80
2009-06-25 07:43:34 51°18.088 2°52.559 9.8 340 18.2 101380 80
2009-06-25 07:43:39 51°18.101 2°52.568 10.8 286 18.2 101380 81
2009-06-25 07:43:44 51°18.113 2°52.577 10.4 339 18.2 101380 81
2009-06-25 07:43:49 51°18.126 2°52.586 11 281 18.2 101380 81
2009-06-25 07:43:54 51°18.139 2°52.596 9.4 336 18.2 101380 81
2009-06-25 07:43:59 51°18.151 2°52.606 11.4 283 18.2 101390 81
2009-06-25 07:44:05 51°18.165 2°52.621 10 335 18.2 101390 81
2009-06-25 07:44:09 51°18.174 2°52.63 10.5 283 18.2 101370 80
2009-06-25 07:44:13 51°18.182 2°52.642 10.9 337 18.2 101370 80
2009-06-25 07:44:19 51°18.194 2°52.658 11.6 278 18.2 101380 81
2009-06-25 07:44:24 51°18.204 2°52.673 10.2 335 18.2 101380 81
2009-06-25 07:44:29 51°18.213 2°52.688 11.6 334 18.2 101380 80
2009-06-25 07:44:33 51°18.22 2°52.701 11.5 334 18.2 101380 80
2009-06-25 07:44:39 51°18.23 2°52.721 10.2 281 18.2 101390 81
2009-06-25 07:44:44 51°18.238 2°52.738 10.1 334 18.2 101390 81
2009-06-25 07:44:49 51°18.246 2°52.755 11.9 283 18.2 101380 81
2009-06-25 07:44:53 51°18.252 2°52.769 11.1 332 18.2 101380 81
2009-06-25 07:44:59 51°18.261 2°52.79 10 278 18.2 101380 81
2009-06-25 07:45:04 51°18.268 2°52.808 12 331 18.2 101380 81
2009-06-25 07:45:09 51°18.276 2°52.826 12.4 282 18.2 101390 80
2009-06-25 07:45:14 51°18.283 2°52.844 11.2 333 18.2 101390 80
2009-06-25 07:45:19 51°18.29 2°52.862 12 285 18.2 101380 80
2009-06-25 07:45:24 51°18.297 2°52.881 11.8 333 18.2 101380 80
2009-06-25 07:45:29 51°18.304 2°52.899 12.5 332 18.2 101390 80
2009-06-25 07:45:34 51°18.311 2°52.918 11 333 18.2 101390 80
2009-06-25 07:45:39 51°18.318 2°52.936 11.2 281 18.2 101380 80
2009-06-25 07:45:44 51°18.324 2°52.956 11.3 330 18.2 101380 80
2009-06-25 07:45:49 51°18.328 2°52.976 11.7 281 18.2 101380 80
2009-06-25 07:45:54 51°18.333 2°52.996 11.2 329 18.2 101380 80
2009-06-25 07:45:59 51°18.337 2°53.016 9.9 283 18.1 101370 80
2009-06-25 07:46:04 51°18.34 2°53.037 10.5 328 18.1 101370 80
2009-06-25 07:46:09 51°18.343 2°53.058 11.1 280 18.2 101380 80
2009-06-25 07:46:14 51°18.346 2°53.079 12.3 328 18.2 101380 80
2009-06-25 07:46:19 51°18.348 2°53.1 12.1 283 18.2 101380 79
2009-06-25 07:46:25 51°18.35 2°53.126 10.7 327 18.2 101380 79
2009-06-25 07:46:29 51°18.352 2°53.143 11.2 327 18.2 101380 81
2009-06-25 07:46:33 51°18.353 2°53.16 10.8 325 18.2 101380 81
2009-06-25 07:46:39 51°18.355 2°53.186 10.9 276 18.1 101390 80
2009-06-25 07:46:44 51°18.356 2°53.208 11.8 327 18.1 101390 80
2009-06-25 07:46:49 51°18.358 2°53.23 10.7 280 18.2 101380 80
2009-06-25 07:46:53 51°18.359 2°53.247 11.9 326 18.2 101380 80
2009-06-25 07:46:59 51°18.361 2°53.273 11 276 18.2 101380 80
2009-06-25 07:47:04 51°18.363 2°53.294 11.6 327 18.2 101380 80
2009-06-25 07:47:09 51°18.363 2°53.316 11.5 279 18.2 101380 80
2009-06-25 07:47:13 51°18.366 2°53.333 12.4 327 18.2 101380 80
2009-06-25 07:47:19 51°18.368 2°53.359 11.2 280 18.2 101390 81
2009-06-25 07:47:24 51°18.371 2°53.38 12.3 327 18.2 101390 81
2009-06-25 07:47:29 51°18.373 2°53.401 12.8 326 18.2 101380 80
2009-06-25 07:47:34 51°18.376 2°53.423 13.1 328 18.2 101380 80
2009-06-25 07:47:39 51°18.379 2°53.444 12.4 280 18.2 101380 81
2009-06-25 07:47:44 51°18.383 2°53.465 11.3 330 18.2 101380 81
2009-06-25 07:47:49 51°18.385 2°53.486 13 280 18.2 101380 81
2009-06-25 07:47:54 51°18.389 2°53.507 13 329 18.2 101380 81
2009-06-25 07:47:59 51°18.393 2°53.527 12.8 286 18.2 101370 80
2009-06-25 07:48:04 51°18.396 2°53.548 12.7 328 18.2 101370 80
2009-06-25 07:48:09 51°18.4 2°53.569 12.7 280 18.2 101380 79
2009-06-25 07:48:14 51°18.403 2°53.59 12.5 327 18.2 101380 79
2009-06-25 07:48:19 51°18.407 2°53.61 10.9 277 18.2 101380 79
2009-06-25 07:48:24 51°18.411 2°53.631 13.3 328 18.2 101380 79
2009-06-25 07:48:29 51°18.415 2°53.652 11.6 329 18.2 101380 79
2009-06-25 07:48:34 51°18.419 2°53.673 11.2 328 18.2 101380 79
2009-06-25 07:48:39 51°18.423 2°53.693 13 277 18.1 101380 80
2009-06-25 07:48:44 51°18.426 2°53.714 13.2 328 18.1 101380 80
2009-06-25 07:48:49 51°18.431 2°53.735 11.5 279 18.2 101380 79
2009-06-25 07:48:53 51°18.434 2°53.751 13.2 329 18.2 101380 79
2009-06-25 07:48:59 51°18.439 2°53.776 12.8 280 18.1 101390 80
2009-06-25 07:49:04 51°18.444 2°53.796 10.9 329 18.1 101390 80
2009-06-25 07:49:09 51°18.447 2°53.817 11.4 283 18.1 101380 79
2009-06-25 07:49:13 51°18.451 2°53.833 13.1 329 18.1 101380 79
2009-06-25 07:49:19 51°18.456 2°53.858 13.2 282 18.1 101390 79
2009-06-25 07:49:24 51°18.46 2°53.879 11.2 328 18.1 101390 79
2009-06-25 07:49:29 51°18.464 2°53.899 12.8 329 18.1 101380 80
2009-06-25 07:49:34 51°18.468 2°53.92 13 328 18.1 101380 79
2009-06-25 07:49:39 51°18.473 2°53.94 10.8 284 18.1 101380 79
2009-06-25 07:49:44 51°18.477 2°53.961 12 328 18.1 101380 79
2009-06-25 07:49:49 51°18.481 2°53.981 12.7 280 18.1 101380 80
2009-06-25 07:49:54 51°18.485 2°54.002 12.4 328 18.1 101380 80
2009-06-25 07:49:59 51°18.49 2°54.022 10.9 285 18.1 101380 80
2009-06-25 07:50:04 51°18.494 2°54.042 11 329 18.1 101380 80
2009-06-25 07:50:09 51°18.498 2°54.063 10.9 280 18.1 101380 80
2009-06-25 07:50:14 51°18.502 2°54.083 12.6 330 18.1 101380 80
2009-06-25 07:50:19 51°18.507 2°54.103 12.5 284 18.1 101380 79
2009-06-25 07:50:24 51°18.512 2°54.123 12.7 330 18.1 101380 79
2009-06-25 07:50:29 51°18.516 2°54.144 10.5 278 18.1 101380 79
2009-06-25 07:50:34 51°18.521 2°54.164 12.4 330 18.1 101380 79
2009-06-25 07:50:39 51°18.525 2°54.184 11.2 281 18.1 101390 79
2009-06-25 07:50:44 51°18.529 2°54.204 11.3 331 18.1 101390 79
2009-06-25 07:50:49 51°18.534 2°54.224 12.8 284 18.1 101390 79
2009-06-25 07:50:54 51°18.538 2°54.245 11.1 328 18.1 101390 79
2009-06-25 07:50:59 51°18.543 2°54.265 12.4 281 18.1 101380 80
2009-06-25 07:51:05 51°18.548 2°54.289 12.2 330 18.1 101380 80
2009-06-25 07:51:09 51°18.552 2°54.305 13.1 280 18.1 101380 79
2009-06-25 07:51:13 51°18.555 2°54.322 12.8 329 18.1 101380 79
2009-06-25 07:51:19 51°18.56 2°54.346 11.2 277 18.1 101390 79
2009-06-25 07:51:24 51°18.564 2°54.366 11.3 329 18.1 101390 79
2009-06-25 07:51:29 51°18.569 2°54.386 13.5 330 18.1 101380 80
2009-06-25 07:51:34 51°18.573 2°54.407 10.5 330 18.1 101380 80
2009-06-25 07:51:39 51°18.578 2°54.427 12.5 278 18.1 101380 80
2009-06-25 07:51:44 51°18.582 2°54.447 10.5 330 18.1 101380 80
2009-06-25 07:51:49 51°18.586 2°54.468 12.4 285 18.1 101380 80
2009-06-25 07:51:54 51°18.591 2°54.488 10.7 329 18.1 101380 80
2009-06-25 07:51:59 51°18.596 2°54.508 12.5 283 18.1 101390 79
2009-06-25 07:52:04 51°18.6 2°54.528 12.1 330 18.1 101390 79
2009-06-25 07:52:09 51°18.604 2°54.548 12.8 281 18.1 101380 80
2009-06-25 07:52:14 51°18.609 2°54.569 11 329 18.1 101380 80
2009-06-25 07:52:19 51°18.613 2°54.589 11.2 282 18 101390 80
2009-06-25 07:52:24 51°18.617 2°54.61 13.2 329 18 101390 80
2009-06-25 07:52:29 51°18.622 2°54.63 11 331 18 101390 79
2009-06-25 07:52:34 51°18.626 2°54.65 11 330 18 101390 79
2009-06-25 07:52:39 51°18.631 2°54.67 10.9 277 18 101380 79
2009-06-25 07:52:44 51°18.635 2°54.691 12.6 329 18 101380 79
2009-06-25 07:52:49 51°18.639 2°54.711 12.3 277 18 101390 79
2009-06-25 07:52:54 51°18.644 2°54.732 10.8 329 18 101390 79
2009-06-25 07:52:59 51°18.647 2°54.753 12.4 278 18 101380 79
2009-06-25 07:53:05 51°18.653 2°54.777 13.4 329 18 101380 79
2009-06-25 07:53:09 51°18.656 2°54.793 11.6 281 18 101380 80
2009-06-25 07:53:13 51°18.66 2°54.809 11 330 18 101380 80
2009-06-25 07:53:19 51°18.666 2°54.834 11.5 280 18.1 101380 80
2009-06-25 07:53:24 51°18.671 2°54.853 11.3 331 18.1 101380 80
2009-06-25 07:53:29 51°18.676 2°54.874 11.9 329 18 101390 80
2009-06-25 07:53:34 51°18.682 2°54.893 11.2 331 18 101390 80
2009-06-25 07:53:39 51°18.687 2°54.913 11.3 279 18 101380 80
2009-06-25 07:53:44 51°18.693 2°54.933 11.5 331 18 101380 80
2009-06-25 07:53:49 51°18.698 2°54.952 11.7 286 18 101390 79
2009-06-25 07:53:53 51°18.702 2°54.968 13.7 330 18 101390 79
2009-06-25 07:53:59 51°18.71 2°54.991 13.1 285 18 101380 80
2009-06-25 07:54:04 51°18.715 2°55.011 11.3 330 18 101380 80
2009-06-25 07:54:09 51°18.721 2°55.03 12.4 281 18 101380 80
2009-06-25 07:54:14 51°18.728 2°55.049 13.6 331 18 101380 80
2009-06-25 07:54:19 51°18.733 2°55.069 13.1 280 18 101380 79
2009-06-25 07:54:24 51°18.739 2°55.088 13.3 331 18 101380 79
2009-06-25 07:54:29 51°18.745 2°55.108 13.4 330 18 101380 80
2009-06-25 07:54:34 51°18.751 2°55.127 12.3 331 18 101380 80
2009-06-25 07:54:39 51°18.757 2°55.147 12.9 276 18 101380 79
2009-06-25 07:54:44 51°18.762 2°55.167 11.4 330 18 101380 79
2009-06-25 07:54:49 51°18.768 2°55.186 13.4 285 18 101380 79
2009-06-25 07:54:53 51°18.773 2°55.202 11.9 330 18 101380 79
2009-06-25 07:54:59 51°18.78 2°55.225 13.2 284 18 101380 79
2009-06-25 07:55:04 51°18.786 2°55.245 13 332 18 101380 79
2009-06-25 07:55:09 51°18.792 2°55.264 12.3 279 18 101370 79
2009-06-25 07:55:14 51°18.798 2°55.283 11.7 331 18 101370 79
2009-06-25 07:55:19 51°18.804 2°55.303 12.6 278 18 101370 79
2009-06-25 07:55:24 51°18.81 2°55.322 13.4 331 18 101370 79
2009-06-25 07:55:29 51°18.816 2°55.341 13.6 333 18 101380 79
2009-06-25 07:55:34 51°18.822 2°55.36 13.1 331 18 101380 79
2009-06-25 07:55:39 51°18.828 2°55.38 13.4 286 18 101360 79
2009-06-25 07:55:44 51°18.834 2°55.399 12.3 332 18 101360 79
2009-06-25 07:55:49 51°18.841 2°55.418 13.2 284 18 101380 78
2009-06-25 07:55:54 51°18.847 2°55.437 11.9 332 18 101380 78
2009-06-25 07:55:59 51°18.853 2°55.456 13.6 282 18 101370 79
2009-06-25 07:56:04 51°18.859 2°55.475 12.4 332 18 101370 79
2009-06-25 07:56:09 51°18.865 2°55.493 13.2 276 18 101380 79
2009-06-25 07:56:14 51°18.871 2°55.512 12.7 332 18 101380 79
2009-06-25 07:56:19 51°18.877 2°55.532 12.2 277 18 101380 79
2009-06-25 07:56:24 51°18.883 2°55.551 13.5 334 18 101380 79
2009-06-25 07:56:29 51°18.889 2°55.57 11.6 331 18 101380 79
2009-06-25 07:56:34 51°18.895 2°55.589 13.5 331 18 101380 79
2009-06-25 07:56:39 51°18.901 2°55.608 12.3 280 18 101370 78
2009-06-25 07:56:44 51°18.907 2°55.627 13.6 331 18 101370 78
2009-06-25 07:56:49 51°18.913 2°55.646 12 277 18 101380 80
2009-06-25 07:56:54 51°18.919 2°55.666 12.3 332 18 101380 80
2009-06-25 07:56:59 51°18.925 2°55.684 13.9 285 18 101370 79
2009-06-25 07:57:04 51°18.93 2°55.704 11.9 331 18 101370 79
2009-06-25 07:57:09 51°18.937 2°55.723 11.8 285 17.9 101380 78
2009-06-25 07:57:14 51°18.942 2°55.743 12.2 330 17.9 101380 78
2009-06-25 07:57:19 51°18.948 2°55.762 13.6 284 17.9 101370 78
2009-06-25 07:57:24 51°18.953 2°55.782 12.1 330 17.9 101370 78
2009-06-25 07:57:29 51°18.959 2°55.801 13.6 332 18 101380 78
2009-06-25 07:57:34 51°18.964 2°55.821 13.8 331 18 101380 78
2009-06-25 07:57:39 51°18.97 2°55.84 13.8 284 18 101390 79
2009-06-25 07:57:44 51°18.976 2°55.86 11.9 331 18 101390 79
2009-06-25 07:57:49 51°18.981 2°55.879 13.1 282 17.9 101370 78
2009-06-25 07:57:53 51°18.986 2°55.895 12.3 331 17.9 101370 78
2009-06-25 07:57:59 51°18.992 2°55.918 13.3 279 17.9 101380 78
2009-06-25 07:58:04 51°18.998 2°55.938 11.9 330 17.9 101380 78
2009-06-25 07:58:09 51°19.004 2°55.957 11.3 277 17.9 101360 78
2009-06-25 07:58:14 51°19.009 2°55.977 12.5 330 17.9 101360 78
2009-06-25 07:58:19 51°19.015 2°55.996 11.4 281 17.9 101370 78
2009-06-25 07:58:24 51°19.021 2°56.016 13.2 329 17.9 101370 78
2009-06-25 07:58:29 51°19.026 2°56.035 11.9 330 18 101380 78
2009-06-25 07:58:34 51°19.032 2°56.055 12.2 330 18 101380 78
2009-06-25 07:58:39 51°19.038 2°56.074 12.2 285 18 101370 78
2009-06-25 07:58:44 51°19.043 2°56.094 13.3 330 18 101370 78
2009-06-25 07:58:49 51°19.049 2°56.114 13.5 281 18 101380 79
2009-06-25 07:58:54 51°19.054 2°56.133 13.2 330 18 101380 79
2009-06-25 07:58:59 51°19.06 2°56.153 13.1 281 18 101380 79
2009-06-25 07:59:04 51°19.066 2°56.172 13.7 331 18 101380 79
2009-06-25 07:59:09 51°19.072 2°56.191 12.7 279 18 101380 79
2009-06-25 07:59:14 51°19.078 2°56.211 11.8 331 18 101380 79
2009-06-25 07:59:19 51°19.084 2°56.23 12.9 281 18 101370 78
2009-06-25 07:59:24 51°19.09 2°56.249 11.3 328 18 101370 78
2009-06-25 07:59:29 51°19.095 2°56.269 11.2 331 18 101380 79
2009-06-25 07:59:34 51°19.101 2°56.289 12.9 331 18 101380 79
2009-06-25 07:59:39 51°19.107 2°56.308 13 284 18 101380 78
2009-06-25 07:59:44 51°19.112 2°56.327 11.7 331 18 101380 78
2009-06-25 07:59:49 51°19.118 2°56.347 12.8 281 18 101380 79
2009-06-25 07:59:53 51°19.123 2°56.363 10.9 332 18 101380 79
2009-06-25 07:59:59 51°19.129 2°56.386 11.1 281 18 101390 79
2009-06-25 08:00:05 51°19.136 2°56.41 11.4 332 18 101390 79
2009-06-25 08:00:09 51°19.141 2°56.425 12.2 280 18 101380 79
2009-06-25 08:00:13 51°19.145 2°56.441 12 332 18 101380 79
2009-06-25 08:00:19 51°19.152 2°56.465 11.1 282 18 101380 80
2009-06-25 08:00:24 51°19.157 2°56.484 12.7 332 18 101380 80
2009-06-25 08:00:29 51°19.163 2°56.504 13.3 332 18 101380 80
2009-06-25 08:00:34 51°19.169 2°56.523 11.3 333 18 101380 80
2009-06-25 08:00:39 51°19.175 2°56.543 11.5 282 18 101390 79
2009-06-25 08:00:44 51°19.181 2°56.562 13.9 331 18 101390 79
2009-06-25 08:00:49 51°19.186 2°56.582 11.2 280 18 101380 80
2009-06-25 08:00:54 51°19.192 2°56.602 13.2 332 18 101380 80
2009-06-25 08:00:59 51°19.197 2°56.622 13.6 278 18 101370 79
2009-06-25 08:01:04 51°19.203 2°56.641 12.5 331 18 101370 79
2009-06-25 08:01:09 51°19.209 2°56.661 13.4 282 18 101380 79
2009-06-25 08:01:13 51°19.213 2°56.676 13.6 330 18 101380 79
2009-06-25 08:01:19 51°19.22 2°56.7 13 280 18 101380 80
2009-06-25 08:01:24 51°19.225 2°56.72 13.1 330 18 101380 80
2009-06-25 08:01:29 51°19.231 2°56.74 11.8 331 18 101390 79
2009-06-25 08:01:34 51°19.236 2°56.759 11.6 332 18 101390 79
2009-06-25 08:01:39 51°19.242 2°56.779 11.3 283 18 101380 79
2009-06-25 08:01:44 51°19.248 2°56.798 13 332 18 101380 79
2009-06-25 08:01:49 51°19.253 2°56.818 14.1 281 18 101380 80
2009-06-25 08:01:53 51°19.258 2°56.834 13.3 333 18 101380 80
2009-06-25 08:01:59 51°19.264 2°56.858 11.1 281 18 101390 79
2009-06-25 08:02:04 51°19.27 2°56.877 12.7 331 18 101390 79
2009-06-25 08:02:09 51°19.275 2°56.897 13.6 277 18 101370 79
2009-06-25 08:02:14 51°19.281 2°56.917 13.6 332 18 101370 79
2009-06-25 08:02:19 51°19.287 2°56.936 11.9 278 18 101380 80
2009-06-25 08:02:24 51°19.292 2°56.955 13.3 332 18 101380 80
2009-06-25 08:02:29 51°19.298 2°56.975 13.1 333 18 101380 79
2009-06-25 08:02:34 51°19.304 2°56.994 11.7 331 18 101380 79
2009-06-25 08:02:39 51°19.309 2°57.014 11 285 18 101380 79
2009-06-25 08:02:44 51°19.315 2°57.033 13.2 331 18 101380 79
2009-06-25 08:02:49 51°19.32 2°57.052 11.9 280 18 101380 79
2009-06-25 08:02:54 51°19.326 2°57.072 11.6 331 18 101380 79
2009-06-25 08:02:59 51°19.331 2°57.091 12 278 18 101380 79
2009-06-25 08:03:04 51°19.336 2°57.11 14.3 330 18 101380 79
2009-06-25 08:03:09 51°19.342 2°57.129 11.9 280 18 101380 79
2009-06-25 08:03:14 51°19.348 2°57.149 12.1 331 18 101380 79
2009-06-25 08:03:19 51°19.353 2°57.168 13.4 281 17.9 101390 78
2009-06-25 08:03:24 51°19.359 2°57.188 13.7 331 17.9 101390 78
2009-06-25 08:03:29 51°19.364 2°57.207 13.9 333 17.9 101380 78
2009-06-25 08:03:34 51°19.37 2°57.227 11.8 332 17.9 101380 78
2009-06-25 08:03:39 51°19.375 2°57.246 12 279 17.9 101380 79
2009-06-25 08:03:44 51°19.381 2°57.266 14 331 17.9 101380 79
2009-06-25 08:03:49 51°19.387 2°57.285 11.6 282 17.9 101380 79
2009-06-25 08:03:53 51°19.391 2°57.301 11.5 329 17.9 101380 79
2009-06-25 08:03:59 51°19.398 2°57.324 13.6 280 18 101380 79
2009-06-25 08:04:05 51°19.405 2°57.347 14.8 331 18 101380 79
2009-06-25 08:04:09 51°19.409 2°57.363 12 283 18 101380 78
2009-06-25 08:04:13 51°19.414 2°57.378 12 332 18 101380 78
2009-06-25 08:04:19 51°19.421 2°57.401 13.8 285 18 101380 79
2009-06-25 08:04:24 51°19.427 2°57.42 12.8 332 18 101380 79
2009-06-25 08:04:29 51°19.433 2°57.44 12 332 18 101380 78
2009-06-25 08:04:34 51°19.438 2°57.459 12.1 331 18 101380 78
2009-06-25 08:04:39 51°19.444 2°57.478 11.9 286 17.9 101380 78
2009-06-25 08:04:44 51°19.449 2°57.498 14.4 331 17.9 101380 78
2009-06-25 08:04:49 51°19.455 2°57.517 13.5 286 17.9 101380 78
2009-06-25 08:04:54 51°19.461 2°57.536 12 333 17.9 101380 78
2009-06-25 08:04:59 51°19.466 2°57.556 11.2 277 18 101380 79
2009-06-25 08:05:04 51°19.472 2°57.575 14.1 331 18 101380 79
2009-06-25 08:05:09 51°19.478 2°57.594 13.6 284 18 101390 77
2009-06-25 08:05:14 51°19.484 2°57.614 11.4 331 18 101390 77
2009-06-25 08:05:19 51°19.49 2°57.633 11.6 283 18 101380 77
2009-06-25 08:05:24 51°19.496 2°57.652 14 332 18 101380 77
2009-06-25 08:05:29 51°19.502 2°57.671 12 332 18 101390 77
2009-06-25 08:05:34 51°19.508 2°57.69 11.4 332 18 101390 77
2009-06-25 08:05:39 51°19.514 2°57.709 12.3 281 18 101370 78
2009-06-25 08:05:44 51°19.52 2°57.728 14.3 333 18 101370 78
2009-06-25 08:05:49 51°19.526 2°57.747 13.2 284 18 101380 77
2009-06-25 08:05:54 51°19.532 2°57.766 14.3 332 18 101380 77
2009-06-25 08:05:59 51°19.537 2°57.785 14.1 281 18 101380 78
2009-06-25 08:06:04 51°19.543 2°57.804 12.2 332 18 101380 78
2009-06-25 08:06:09 51°19.549 2°57.824 11.9 277 18 101380 78
2009-06-25 08:06:13 51°19.553 2°57.839 14.1 331 18 101380 78
2009-06-25 08:06:19 51°19.56 2°57.862 14.2 285 18 101380 78
2009-06-25 08:06:25 51°19.567 2°57.886 11.8 333 18 101380 78
2009-06-25 08:06:29 51°19.571 2°57.901 11.8 332 18 101370 78
2009-06-25 08:06:34 51°19.577 2°57.92 11.2 333 18 101370 78
2009-06-25 08:06:39 51°19.582 2°57.939 13.5 280 18 101380 77
2009-06-25 08:06:44 51°19.588 2°57.959 13.5 333 18 101380 77
2009-06-25 08:06:49 51°19.594 2°57.977 11.1 276 18 101380 78
2009-06-25 08:06:53 51°19.599 2°57.993 13.5 331 18 101380 78
2009-06-25 08:06:59 51°19.606 2°58.015 13.6 283 18 101380 79
2009-06-25 08:07:04 51°19.612 2°58.034 11.6 333 18 101380 79
2009-06-25 08:07:09 51°19.618 2°58.053 11.5 277 18 101390 79
2009-06-25 08:07:14 51°19.624 2°58.072 13.6 332 18 101390 79
2009-06-25 08:07:19 51°19.63 2°58.091 11.6 285 18 101380 79
2009-06-25 08:07:24 51°19.636 2°58.109 13.6 333 18 101380 79
2009-06-25 08:07:29 51°19.641 2°58.128 14.2 331 18 101380 78
2009-06-25 08:07:34 51°19.647 2°58.147 13.6 332 18 101380 78
2009-06-25 08:07:39 51°19.653 2°58.166 11.2 276 18 101380 78
2009-06-25 08:07:44 51°19.659 2°58.185 11.1 333 18 101380 78
2009-06-25 08:07:49 51°19.665 2°58.204 13.5 277 18 101380 79
2009-06-25 08:07:54 51°19.67 2°58.223 11.7 332 18 101380 79
2009-06-25 08:07:59 51°19.676 2°58.242 12.9 286 18 101390 79
2009-06-25 08:08:04 51°19.682 2°58.261 13.7 332 18 101390 79
2009-06-25 08:08:09 51°19.688 2°58.28 12.1 279 18 101390 79
2009-06-25 08:08:14 51°19.693 2°58.299 11.5 334 18 101390 79
2009-06-25 08:08:19 51°19.699 2°58.318 13.7 282 18 101380 79
2009-06-25 08:08:24 51°19.704 2°58.337 11.6 333 18 101380 79
2009-06-25 08:08:29 51°19.71 2°58.357 11.8 332 18 101380 79
2009-06-25 08:08:33 51°19.715 2°58.372 11.1 332 18 101380 79
2009-06-25 08:08:39 51°19.722 2°58.395 13.4 282 18 101390 78
2009-06-25 08:08:45 51°19.728 2°58.418 13.2 332 18 101390 78
2009-06-25 08:08:49 51°19.733 2°58.433 12.9 278 18 101390 79
2009-06-25 08:08:53 51°19.738 2°58.448 13.8 331 18 101390 79
2009-06-25 08:08:59 51°19.744 2°58.471 13.5 283 18 101390 79
2009-06-25 08:09:04 51°19.75 2°58.491 12.9 333 18 101390 79
2009-06-25 08:09:09 51°19.755 2°58.51 12.1 279 18 101390 79
2009-06-25 08:09:13 51°19.76 2°58.525 13.8 331 18 101390 79
2009-06-25 08:09:19 51°19.767 2°58.548 11.6 284 18 101380 78
2009-06-25 08:09:24 51°19.772 2°58.568 11.7 330 18 101380 78
2009-06-25 08:09:29 51°19.777 2°58.587 12.9 333 18 101380 78
2009-06-25 08:09:34 51°19.783 2°58.606 11.2 331 18 101380 78
2009-06-25 08:09:39 51°19.789 2°58.626 13.5 284 18 101390 79
2009-06-25 08:09:44 51°19.794 2°58.645 13.4 333 18 101390 79
2009-06-25 08:09:49 51°19.8 2°58.664 12.9 280 18 101390 79
2009-06-25 08:09:54 51°19.805 2°58.684 12.5 331 18 101390 79
2009-06-25 08:09:59 51°19.81 2°58.703 11.4 284 18 101390 79
2009-06-25 08:10:04 51°19.816 2°58.722 12.7 332 18 101390 79
2009-06-25 08:10:09 51°19.821 2°58.742 12.7 280 18 101390 79
2009-06-25 08:10:14 51°19.827 2°58.761 12.9 333 18 101390 79
2009-06-25 08:10:19 51°19.832 2°58.781 12.4 282 18.1 101390 79
2009-06-25 08:10:24 51°19.838 2°58.8 13.8 331 18.1 101390 79
2009-06-25 08:10:29 51°19.843 2°58.819 12.5 331 18.1 101380 79
2009-06-25 08:10:34 51°19.849 2°58.838 13.6 332 18.1 101380 79
2009-06-25 08:10:39 51°19.854 2°58.857 12.4 281 18 101390 79
2009-06-25 08:10:44 51°19.86 2°58.877 11.7 330 18 101390 79
2009-06-25 08:10:49 51°19.866 2°58.896 11.2 284 18 101390 78
2009-06-25 08:10:54 51°19.871 2°58.916 12.5 330 18 101390 78
2009-06-25 08:10:59 51°19.877 2°58.934 11.9 278 18 101390 78
2009-06-25 08:11:04 51°19.882 2°58.954 11.8 332 18 101390 78
2009-06-25 08:11:09 51°19.888 2°58.973 13.4 282 18 101380 78
2009-06-25 08:11:14 51°19.893 2°58.993 13.8 330 18 101380 78
2009-06-25 08:11:19 51°19.899 2°59.012 12.5 285 18.1 101400 78
2009-06-25 08:11:24 51°19.904 2°59.031 12.7 331 18.1 101400 78
2009-06-25 08:11:29 51°19.91 2°59.05 13.5 331 18.1 101390 79
2009-06-25 08:11:34 51°19.915 2°59.069 11.8 331 18.1 101390 79
2009-06-25 08:11:39 51°19.921 2°59.088 13.7 280 18.1 101390 78
2009-06-25 08:11:44 51°19.926 2°59.108 12.2 330 18.1 101390 78
2009-06-25 08:11:49 51°19.931 2°59.127 12.8 285 18.1 101390 78
2009-06-25 08:11:54 51°19.937 2°59.147 12.2 331 18.1 101390 78
2009-06-25 08:11:59 51°19.942 2°59.166 12 278 18.1 101380 78
2009-06-25 08:12:04 51°19.947 2°59.186 12.8 332 18.1 101380 78
2009-06-25 08:12:09 51°19.953 2°59.205 11.8 280 18.1 101390 78
2009-06-25 08:12:14 51°19.958 2°59.224 11.7 332 18.1 101390 78
2009-06-25 08:12:19 51°19.964 2°59.244 12.4 284 18.1 101390 78
2009-06-25 08:12:24 51°19.969 2°59.263 11.6 333 18.1 101390 78
2009-06-25 08:12:29 51°19.974 2°59.282 12 332 18.1 101390 79
2009-06-25 08:12:33 51°19.979 2°59.297 12.2 332 18.1 101390 79
2009-06-25 08:12:39 51°19.986 2°59.32 11.6 282 18.1 101390 79
2009-06-25 08:12:44 51°19.991 2°59.34 11.5 332 18.1 101390 79
2009-06-25 08:12:49 51°19.997 2°59.359 12.6 285 18.1 101390 79
2009-06-25 08:12:53 51°20.001 2°59.374 11.1 332 18.1 101390 79
2009-06-25 08:12:59 51°20.008 2°59.397 12 282 18.1 101390 78
2009-06-25 08:13:04 51°20.014 2°59.415 12 333 18.1 101390 78
2009-06-25 08:13:09 51°20.02 2°59.434 11.5 279 18.1 101400 80
2009-06-25 08:13:13 51°20.025 2°59.449 10.2 333 18.1 101400 80
2009-06-25 08:13:19 51°20.032 2°59.472 10.6 284 18.1 101390 79
2009-06-25 08:13:24 51°20.038 2°59.49 12.9 332 18.1 101390 79
2009-06-25 08:13:29 51°20.044 2°59.509 12.7 333 18.1 101400 79
2009-06-25 08:13:34 51°20.05 2°59.528 11.8 331 18.1 101400 79
2009-06-25 08:13:39 51°20.055 2°59.547 12.5 281 18.1 101390 80
2009-06-25 08:13:44 51°20.061 2°59.567 12.6 332 18.1 101390 80
2009-06-25 08:13:49 51°20.066 2°59.586 12.5 285 18.1 101400 80
2009-06-25 08:13:54 51°20.072 2°59.605 12.7 331 18.1 101400 80
2009-06-25 08:13:59 51°20.077 2°59.624 12.9 286 18.1 101400 79
2009-06-25 08:14:04 51°20.082 2°59.643 12.4 331 18.1 101400 79
2009-06-25 08:14:09 51°20.088 2°59.662 11 280 18.1 101390 78
2009-06-25 08:14:14 51°20.094 2°59.682 11.2 332 18.1 101390 78
2009-06-25 08:14:19 51°20.099 2°59.701 11.6 281 18.1 101400 79
2009-06-25 08:14:24 51°20.105 2°59.72 12 333 18.1 101400 79
2009-06-25 08:14:29 51°20.11 2°59.739 11.8 331 18.1 101390 78
2009-06-25 08:14:34 51°20.115 2°59.758 11.2 332 18.1 101390 78
2009-06-25 08:14:39 51°20.121 2°59.777 11 282 18.1 101390 78
2009-06-25 08:14:44 51°20.127 2°59.796 12.8 332 18.1 101390 78
2009-06-25 08:14:49 51°20.132 2°59.815 12 277 18.1 101400 77
2009-06-25 08:14:54 51°20.138 2°59.834 12.6 332 18.1 101400 77
2009-06-25 08:14:59 51°20.144 2°59.853 13.5 280 18.1 101400 78
2009-06-25 08:15:04 51°20.15 2°59.871 11.6 331 18.1 101400 78
2009-06-25 08:15:09 51°20.155 2°59.89 11.1 282 18.1 101380 79
2009-06-25 08:15:14 51°20.162 2°59.909 11.2 331 18.1 101380 79
2009-06-25 08:15:19 51°20.167 2°59.928 11.7 283 18.1 101400 78
2009-06-25 08:15:24 51°20.173 2°59.947 11.4 330 18.1 101400 78
2009-06-25 08:15:29 51°20.179 2°59.966 13.3 330 18.1 101390 78
2009-06-25 08:15:33 51°20.183 2°59.981 13.2 333 18.1 101390 78
2009-06-25 08:15:39 51°20.19 3°0.003 11.8 277 18.1 101400 78
2009-06-25 08:15:45 51°20.197 3°0.026 12.1 332 18.1 101400 78
2009-06-25 08:15:49 51°20.202 3°0.041 13.1 284 18.1 101390 78
2009-06-25 08:15:53 51°20.207 3°0.056 12.7 332 18.1 101390 78
2009-06-25 08:15:59 51°20.213 3°0.078 11.3 279 18.1 101390 78
2009-06-25 08:16:04 51°20.22 3°0.097 10.9 332 18.1 101390 78
2009-06-25 08:16:09 51°20.225 3°0.116 12.3 281 18.1 101390 77
2009-06-25 08:16:13 51°20.229 3°0.132 11.9 332 18.1 101390 77
2009-06-25 08:16:19 51°20.236 3°0.155 12.3 286 18.1 101400 78
2009-06-25 08:16:24 51°20.242 3°0.174 12.9 331 18.1 101400 78
2009-06-25 08:16:29 51°20.247 3°0.194 12.8 332 18.1 101400 78
2009-06-25 08:16:34 51°20.252 3°0.213 13.6 331 18.1 101400 78
2009-06-25 08:16:39 51°20.258 3°0.232 11.8 286 18.1 101400 77
2009-06-25 08:16:44 51°20.263 3°0.251 13.2 331 18.1 101400 77
2009-06-25 08:16:49 51°20.269 3°0.271 11.9 285 18.1 101400 78
2009-06-25 08:16:54 51°20.274 3°0.29 13 330 18.1 101400 78
2009-06-25 08:16:59 51°20.28 3°0.309 12.5 280 18.1 101390 77
2009-06-25 08:17:04 51°20.286 3°0.328 12.1 332 18.1 101390 77
2009-06-25 08:17:09 51°20.291 3°0.348 11.7 278 18.1 101400 76
2009-06-25 08:17:14 51°20.297 3°0.367 11.2 330 18.1 101400 76
2009-06-25 08:17:19 51°20.302 3°0.386 12.5 281 18.1 101400 77
2009-06-25 08:17:24 51°20.308 3°0.405 12.3 331 18.1 101400 77
2009-06-25 08:17:29 51°20.314 3°0.424 12.8 332 18.1 101400 76
2009-06-25 08:17:34 51°20.319 3°0.444 10.9 331 18.1 101400 76
2009-06-25 08:17:39 51°20.325 3°0.462 12.5 281 18.1 101400 77
2009-06-25 08:17:44 51°20.331 3°0.481 11.7 332 18.1 101400 77
2009-06-25 08:17:49 51°20.337 3°0.5 12 283 18.1 101400 78
2009-06-25 08:17:54 51°20.343 3°0.519 11.7 332 18.1 101400 78
2009-06-25 08:17:59 51°20.349 3°0.537 11.8 280 18.1 101400 77
2009-06-25 08:18:05 51°20.356 3°0.56 13 332 18.1 101400 77
2009-06-25 08:18:09 51°20.36 3°0.575 11.2 276 18.1 101400 77
2009-06-25 08:18:13 51°20.365 3°0.59 12.1 331 18.1 101400 77
2009-06-25 08:18:19 51°20.372 3°0.613 12.2 278 18.1 101390 77
2009-06-25 08:18:24 51°20.377 3°0.632 12.7 330 18.1 101390 77
2009-06-25 08:18:29 51°20.383 3°0.651 12.3 331 18.1 101390 76
2009-06-25 08:18:34 51°20.388 3°0.67 12.9 330 18.1 101390 76
2009-06-25 08:18:39 51°20.394 3°0.689 11.1 280 18.1 101400 76
2009-06-25 08:18:44 51°20.399 3°0.708 13 331 18.1 101400 76
2009-06-25 08:18:49 51°20.405 3°0.727 11.7 277 18.1 101400 76
2009-06-25 08:18:53 51°20.409 3°0.742 12.7 331 18.1 101400 76
2009-06-25 08:18:59 51°20.415 3°0.765 12.1 280 18.1 101400 77
2009-06-25 08:19:04 51°20.421 3°0.784 11.2 332 18.1 101400 77
2009-06-25 08:19:09 51°20.426 3°0.804 11.4 277 18.1 101400 77
2009-06-25 08:19:14 51°20.432 3°0.822 12.5 330 18.1 101400 77
2009-06-25 08:19:19 51°20.437 3°0.841 11.3 277 18.1 101390 77
2009-06-25 08:19:24 51°20.442 3°0.86 12.4 331 18.1 101390 77
2009-06-25 08:19:29 51°20.448 3°0.879 13.8 330 18.1 101410 76
2009-06-25 08:19:34 51°20.454 3°0.897 11.7 331 18.1 101410 76
2009-06-25 08:19:39 51°20.46 3°0.916 12.9 282 18.2 101390 76
2009-06-25 08:19:44 51°20.466 3°0.934 13.2 331 18.2 101390 76
2009-06-25 08:19:49 51°20.471 3°0.953 13.5 281 18.1 101390 77
2009-06-25 08:19:54 51°20.477 3°0.971 13.6 331 18.1 101390 77
2009-06-25 08:19:59 51°20.483 3°0.99 12.6 279 18.1 101400 76
2009-06-25 08:20:04 51°20.489 3°1.009 11.8 330 18.1 101400 76
2009-06-25 08:20:09 51°20.494 3°1.028 13.2 284 18.2 101400 76
2009-06-25 08:20:14 51°20.5 3°1.046 13.1 331 18.2 101400 76
2009-06-25 08:20:19 51°20.506 3°1.065 12.8 281 18.2 101390 76
2009-06-25 08:20:25 51°20.512 3°1.088 10.8 332 18.2 101390 76
2009-06-25 08:20:29 51°20.517 3°1.103 10.6 330 18.2 101400 77
2009-06-25 08:20:34 51°20.522 3°1.122 12.1 331 18.2 101400 77
2009-06-25 08:20:39 51°20.528 3°1.141 12.3 279 18.2 101400 75
2009-06-25 08:20:44 51°20.533 3°1.161 12.7 330 18.2 101400 75
2009-06-25 08:20:49 51°20.538 3°1.18 13 285 18.2 101390 76
2009-06-25 08:20:53 51°20.543 3°1.195 13.2 331 18.2 101390 76
2009-06-25 08:20:59 51°20.55 3°1.218 11.2 281 18.2 101400 77
2009-06-25 08:21:04 51°20.555 3°1.238 11.5 331 18.2 101400 77
2009-06-25 08:21:09 51°20.56 3°1.257 11.8 283 18.2 101400 77
2009-06-25 08:21:13 51°20.565 3°1.272 11.8 330 18.2 101400 77
2009-06-25 08:21:19 51°20.571 3°1.295 12.9 282 18.2 101390 76
2009-06-25 08:21:24 51°20.576 3°1.314 11.5 329 18.2 101390 76
2009-06-25 08:21:29 51°20.58 3°1.334 11.5 330 18.2 101400 76
2009-06-25 08:21:34 51°20.584 3°1.354 11.2 329 18.2 101400 76
2009-06-25 08:21:39 51°20.587 3°1.375 11.3 279 18.2 101400 75
2009-06-25 08:21:44 51°20.589 3°1.395 12.2 329 18.2 101400 75
2009-06-25 08:21:49 51°20.592 3°1.416 11.2 276 18.2 101390 75
2009-06-25 08:21:54 51°20.594 3°1.436 12.4 327 18.2 101390 75
2009-06-25 08:21:59 51°20.596 3°1.457 13.5 285 18.2 101390 75
2009-06-25 08:22:04 51°20.598 3°1.477 11.5 326 18.2 101390 75
2009-06-25 08:22:09 51°20.599 3°1.498 12.9 282 18.2 101400 76
2009-06-25 08:22:14 51°20.601 3°1.519 10.7 326 18.2 101400 76
2009-06-25 08:22:19 51°20.602 3°1.539 12.4 286 18.2 101400 77
2009-06-25 08:22:24 51°20.604 3°1.56 11.2 326 18.2 101400 77
2009-06-25 08:22:29 51°20.605 3°1.581 11.5 327 18.2 101400 75
2009-06-25 08:22:34 51°20.607 3°1.602 11.1 326 18.2 101400 75
2009-06-25 08:22:39 51°20.608 3°1.623 12.2 280 18.2 101400 76
2009-06-25 08:22:45 51°20.61 3°1.648 11.9 326 18.2 101400 76
2009-06-25 08:22:49 51°20.611 3°1.665 10.3 276 18.2 101390 76
2009-06-25 08:22:54 51°20.612 3°1.686 11.3 326 18.2 101390 76
2009-06-25 08:22:59 51°20.613 3°1.707 11.5 279 18.2 101400 76
2009-06-25 08:23:04 51°20.614 3°1.728 12.7 327 18.2 101400 76
2009-06-25 08:23:09 51°20.615 3°1.749 12.2 286 18.3 101400 76
2009-06-25 08:23:13 51°20.616 3°1.766 13 325 18.3 101400 76
2009-06-25 08:23:19 51°20.617 3°1.792 10.8 285 18.3 101400 76
2009-06-25 08:23:24 51°20.618 3°1.813 12.7 326 18.3 101400 76
2009-06-25 08:23:29 51°20.619 3°1.834 10.6 326 18.3 101400 76
2009-06-25 08:23:34 51°20.62 3°1.855 12.4 326 18.3 101400 76
2009-06-25 08:23:39 51°20.621 3°1.876 12 277 18.3 101400 76
2009-06-25 08:23:44 51°20.622 3°1.897 12.1 326 18.3 101400 76
2009-06-25 08:23:49 51°20.623 3°1.918 12 276 18.3 101400 75
2009-06-25 08:23:54 51°20.625 3°1.939 10.5 326 18.3 101400 75
2009-06-25 08:23:59 51°20.625 3°1.96 11.8 277 18.3 101400 76
2009-06-25 08:24:04 51°20.627 3°1.982 10.3 326 18.3 101400 76
2009-06-25 08:24:09 51°20.629 3°2.003 11.6 277 18.3 101400 76
2009-06-25 08:24:14 51°20.63 3°2.023 11 326 18.3 101400 76
2009-06-25 08:24:19 51°20.631 3°2.044 10.9 276 18.3 101400 76
2009-06-25 08:24:24 51°20.632 3°2.065 11.8 326 18.3 101400 76
2009-06-25 08:24:29 51°20.634 3°2.086 12.1 328 18.3 101400 76
2009-06-25 08:24:34 51°20.635 3°2.107 11.7 326 18.3 101400 76
2009-06-25 08:24:39 51°20.637 3°2.128 11.6 282 18.3 101410 76
2009-06-25 08:24:44 51°20.638 3°2.149 10.2 325 18.3 101410 76
2009-06-25 08:24:49 51°20.64 3°2.17 10.6 280 18.3 101400 75
2009-06-25 08:24:54 51°20.641 3°2.191 11.8 324 18.3 101400 75
2009-06-25 08:24:59 51°20.644 3°2.212 11.7 284 18.3 101400 76
2009-06-25 08:25:05 51°20.645 3°2.237 11.8 324 18.3 101400 76
2009-06-25 08:25:09 51°20.646 3°2.254 10.5 280 18.3 101400 75
2009-06-25 08:25:14 51°20.647 3°2.275 12.2 329 18.3 101400 75
2009-06-25 08:25:19 51°20.65 3°2.295 10.6 277 18.4 101400 76
2009-06-25 08:25:24 51°20.651 3°2.316 12.5 326 18.4 101400 76
2009-06-25 08:25:29 51°20.654 3°2.337 11.3 327 18.4 101400 76
2009-06-25 08:25:34 51°20.655 3°2.358 10.9 326 18.4 101400 76
2009-06-25 08:25:39 51°20.657 3°2.379 10.7 279 18.4 101400 76
2009-06-25 08:25:44 51°20.658 3°2.4 10.8 327 18.4 101400 76
2009-06-25 08:25:49 51°20.66 3°2.421 12.2 277 18.4 101400 76
2009-06-25 08:25:53 51°20.662 3°2.437 11.9 327 18.4 101400 76
2009-06-25 08:25:59 51°20.664 3°2.462 12.3 281 18.4 101400 75
2009-06-25 08:26:04 51°20.666 3°2.483 10.8 327 18.4 101400 75
2009-06-25 08:26:09 51°20.668 3°2.504 12.5 283 18.3 101400 75
2009-06-25 08:26:14 51°20.669 3°2.525 11.4 326 18.3 101400 75
2009-06-25 08:26:19 51°20.671 3°2.546 11.4 280 18.4 101400 76
2009-06-25 08:26:24 51°20.673 3°2.567 11.1 326 18.4 101400 76
2009-06-25 08:26:29 51°20.675 3°2.588 12.5 325 18.4 101390 75
2009-06-25 08:26:34 51°20.676 3°2.609 11.3 326 18.4 101390 75
2009-06-25 08:26:39 51°20.677 3°2.63 10.8 277 18.4 101400 75
2009-06-25 08:26:44 51°20.679 3°2.651 12.1 327 18.4 101400 75
2009-06-25 08:26:49 51°20.68 3°2.672 12 278 18.4 101400 75
2009-06-25 08:26:54 51°20.681 3°2.693 11.3 325 18.4 101400 75
2009-06-25 08:26:59 51°20.683 3°2.714 11.3 279 18.4 101400 76
2009-06-25 08:27:04 51°20.684 3°2.735 13 326 18.4 101400 76
2009-06-25 08:27:09 51°20.685 3°2.756 12.5 281 18.4 101400 75
2009-06-25 08:27:14 51°20.687 3°2.777 11.8 328 18.4 101400 75
2009-06-25 08:27:19 51°20.689 3°2.798 11.4 281 18.4 101390 75
2009-06-25 08:27:24 51°20.69 3°2.818 13.1 326 18.4 101390 75
2009-06-25 08:27:29 51°20.693 3°2.839 12.2 327 18.4 101400 75
2009-06-25 08:27:34 51°20.694 3°2.859 11.2 326 18.4 101400 75
2009-06-25 08:27:39 51°20.696 3°2.88 11.9 281 18.4 101390 76
2009-06-25 08:27:44 51°20.697 3°2.901 11.9 327 18.4 101390 76
2009-06-25 08:27:49 51°20.698 3°2.922 10.8 285 18.4 101400 75
2009-06-25 08:27:53 51°20.7 3°2.938 10.8 326 18.4 101400 75
2009-06-25 08:27:59 51°20.701 3°2.963 12.3 285 18.4 101390 76
2009-06-25 08:28:04 51°20.702 3°2.984 12 328 18.4 101390 76
2009-06-25 08:28:09 51°20.704 3°3.005 12.2 282 18.4 101400 75
2009-06-25 08:28:14 51°20.704 3°3.026 12.4 326 18.4 101400 75
2009-06-25 08:28:19 51°20.706 3°3.046 10.5 282 18.4 101400 76
2009-06-25 08:28:24 51°20.707 3°3.067 10.4 326 18.4 101400 76
2009-06-25 08:28:29 51°20.708 3°3.088 10.7 326 18.4 101400 76
2009-06-25 08:28:34 51°20.709 3°3.109 11.1 327 18.4 101400 76
2009-06-25 08:28:39 51°20.71 3°3.13 12.9 280 18.4 101400 76
2009-06-25 08:28:44 51°20.712 3°3.15 12.3 328 18.4 101400 76
2009-06-25 08:28:49 51°20.712 3°3.171 11.3 276 18.4 101400 75
2009-06-25 08:28:53 51°20.714 3°3.188 11.8 328 18.4 101400 75
2009-06-25 08:28:59 51°20.716 3°3.212 10.7 283 18.4 101400 76
2009-06-25 08:29:05 51°20.718 3°3.237 13.1 327 18.4 101400 76
2009-06-25 08:29:09 51°20.72 3°3.253 11.7 281 18.4 101390 76
2009-06-25 08:29:14 51°20.722 3°3.273 12.3 327 18.4 101390 76
2009-06-25 08:29:20 51°20.724 3°3.298 11.6 281 18.4 101390 76
2009-06-25 08:29:24 51°20.727 3°3.314 10.9 329 18.4 101390 76
2009-06-25 08:29:29 51°20.73 3°3.335 12.7 327 18.4 101400 76
2009-06-25 08:29:34 51°20.732 3°3.355 12.1 329 18.4 101400 76
2009-06-25 08:29:39 51°20.734 3°3.375 13 282 18.4 101390 76
2009-06-25 08:29:44 51°20.737 3°3.396 11.9 328 18.4 101390 76
2009-06-25 08:29:49 51°20.74 3°3.416 11 279 18.4 101390 76
2009-06-25 08:29:54 51°20.743 3°3.436 12.8 329 18.4 101390 76
2009-06-25 08:29:59 51°20.746 3°3.456 12.7 283 18.4 101400 76
2009-06-25 08:30:04 51°20.749 3°3.476 12.5 329 18.4 101400 76
2009-06-25 08:30:09 51°20.752 3°3.496 11 277 18.4 101390 76
2009-06-25 08:30:13 51°20.754 3°3.513 12.3 328 18.4 101390 76
2009-06-25 08:30:19 51°20.758 3°3.537 12.9 279 18.4 101390 75
2009-06-25 08:30:24 51°20.76 3°3.557 10.9 328 18.4 101390 75
2009-06-25 08:30:29 51°20.763 3°3.577 11.1 328 18.4 101390 76
2009-06-25 08:30:34 51°20.765 3°3.597 11.4 329 18.4 101390 76
2009-06-25 08:30:39 51°20.769 3°3.617 12.9 276 18.4 101390 75
2009-06-25 08:30:44 51°20.771 3°3.637 12.5 330 18.4 101390 75
2009-06-25 08:30:49 51°20.774 3°3.657 12.1 280 18.4 101390 76
2009-06-25 08:30:54 51°20.777 3°3.678 12.1 330 18.4 101390 76
2009-06-25 08:30:59 51°20.779 3°3.698 10.8 278 18.4 101390 75
2009-06-25 08:31:04 51°20.782 3°3.718 11.6 331 18.4 101390 75
2009-06-25 08:31:09 51°20.785 3°3.738 12.2 278 18.4 101390 76
2009-06-25 08:31:14 51°20.787 3°3.758 11.7 330 18.4 101390 76
2009-06-25 08:31:19 51°20.79 3°3.778 11.5 277 18.4 101390 76
2009-06-25 08:31:25 51°20.794 3°3.803 12 329 18.4 101390 76
2009-06-25 08:31:29 51°20.797 3°3.819 10.7 330 18.4 101400 75
2009-06-25 08:31:34 51°20.8 3°3.839 12.8 329 18.4 101400 75
2009-06-25 08:31:39 51°20.803 3°3.859 12.2 280 18.4 101400 76
2009-06-25 08:31:44 51°20.806 3°3.879 12.5 328 18.4 101400 76
2009-06-25 08:31:49 51°20.808 3°3.899 11.3 278 18.4 101390 75
2009-06-25 08:31:53 51°20.811 3°3.915 12.3 330 18.4 101390 75
2009-06-25 08:31:59 51°20.814 3°3.94 11.1 279 18.4 101400 76
2009-06-25 08:32:04 51°20.817 3°3.961 11.6 328 18.4 101400 76